Погода в Молебке

Россия / Пермский край     57°14′14″N   57°56′11″E
темп.,
°C
ветер,
м/с
пор.,
м/с
влажн.,
%
обл.,
%
осадки,
мм/ч
давл.,
гПа
погр.,
м
17 июня, чт
чт1723:00+19ю414815 0.4 1008494
02:00+16ююз41392100 0.6 1008704
05:00+15ююз399774 1.0 1006395
08:00+16зюз3798100 2.0 1006562
11:00+16сз3796100 3.2 1007486
14:00+15ссз389268 0.1 1009656
17:00+21сз674021 0.1 10082212
20:00+18ссз610476 0.0 10101386
18 июня, пт
пт1823:00+11сз25735 0.0 1013119
02:00+9сз211785 0.0 1014249
05:00+7сз249024 0.0 101697
08:00+13с47500 0.0 1017812
11:00+17с45385 0.0 10182122
14:00+19ссз563157 0.0 10182644
17:00+19ссз582849 0.0 10192877
20:00+17сз484411 0.0 1020885
19 июня, сб
сб1923:00+10зсз226227 0.0 102219
02:00+12з2863100 0.0 1022218
05:00+12з116799 0.0 102224
08:00+13з31167100 0.0 1022519
11:00+14зюз3972100 0.0 1021333
14:00+20з6954100 0.0 10181130
17:00+20з4106096 0.3 10171269
20:00+17з1192100 1.2 101512
20 июня, вс
вс2023:00+15ю129873 2.8 101440
02:00+15з21198100 0.6 1014352
05:00+15з31197100 0.8 1014292
08:00+18сз41391100 0.1 1015643
11:00+22ссз610599 0.1 10151184
14:00+25ссз6114434 0.0 10152140
17:00+25ссз610370 0.0 10162014
20:00+20с49470 0.0 1018571
21 июня, пн
пн2123:00+13с12640 0.0 101913
02:00+12с11650 0.0 102010
05:00+12зюз11659 0.0 102010
08:00+18юз1252100 0.0 1020228
11:00+23зюз465141 0.0 1018755
14:00+27з47535 0.0 10161415
17:00+27зсз575097 1.1 10151559
20:00+21юз257274 0.1 1014121